www.pogodaiklimat.ru

Погода и климат >> Архив погоды >> ОАЭ >> Dubai


АРХИВ ПОГОДЫ в Dubai

Время (UTC), дата Ветер
(напр.,м/с)
 
Видим.   Явления Облачность Т
(С)
Тd
(С)
f
(%)
Тe
(С)
Тes
(С)
Комфортность P
(гПа)
Po
(гПа)
Тmin
(С)
Tmax
(С)
R
(мм)
R24
(мм)
S
(см)
06 20.05 В 2 10 км ясно +35.1 +21.5 45 +35 +51 опасность
солнечного
удара
1009.9 1009.4 +27.0
09 20.05 СЗ 8 10 км 1/1 1200 м
[Cu hum]
+33.4 +21.2 49 +41 +45 опасность
перегрева
1008.5 1008.0
12 20.05 С 8 10 км ясно +33.3 +21.7 51 +42 +44 опасность
перегрева
1007.3 1006.8
15 20.05 С 3 10 км ясно +31.1 +22.3 60 +40 +40 очень
душно
1007.2 1006.7
18 20.05 СЗ 2 10 км ясно +30.4 +18.4 49 +35 +35 очень
душно
1008.3 1007.8 +37.3
21 20.05 СЗ 4 10 км ясно +28.9 +21.3 64 +37 +37 очень
душно
1008.1 1007.6
00 21.05 В 2 10 км ясно +29.1 +19.3 56 +35 +35 очень
душно
1007.6 1007.1
03 21.05 нст 1 10 км ясно +27.0 +20.0 66 +33 +36 очень
душно
1009.3 1008.8
09 21.05 СЗ 6 10 км ясно +33.8 +23.1 54 +44 +52 опасность
перегрева
1009.5 1009.0
12 21.05 СЗ 6 10 км ясно +33.6 +21.3 49 +41 +45 опасность
перегрева
1007.7 1007.2
15 21.05 С 4 10 км ясно +33.2 +18.5 42 +38 +38 очень
душно
1007.8 1007.3
21 21.05 СВ 3 10 км ясно +31.6 +16.3 40 +35 +35 очень
душно
1007.4 1006.9
03 22.05 ЮВ 2 10 км ясно +30.2 +15.0 40 +33 +35 душно 1009.8 1009.3
06 22.05 ЮЗ 3 10 км ясно +36.2 +3.9 13 +33 +48 жарко 1010.8 1010.3 +28.2
09 22.05 СЗ 5 10 км ясно +39.2 +7.4 15 +37 +50 очень
жарко
1009.4 1008.9
12 22.05 СЗ 7 10 км ясно +36.9 +9.2 19 +35 +38 очень
жарко
1007.9 1007.4
18 22.05 С 4 10 км ясно +34.7 +10.3 23 +34 +34 очень
жарко
1009.3 1008.7 +39.4
21 22.05 В 3 8000 м пыль ясно +32.4 +14.4 34 +34 +34 очень
жарко
1008.4 1007.9
00 23.05 В 2 10 км ясно +31.5 +12.7 32 +32 +32 жарко 1007.8 1007.3
03 23.05 Ю 2 10 км 1/0
[Ci fib]
+33.5 +1.7 13 +30 +32 жарко 1009.2 1008.7
06 23.05 ЮЗ 3 10 км 1/0
[Ci fib]
+37.9 +0.1 9 +34 +48 очень
жарко
1009.7 1009.2 +30.5
12 23.05 СЗ 6 10 км ясно +39.9 +7.9 14 +38 +41 очень
жарко
1006.0 1005.5
15 23.05 СЗ 6 10 км ясно +32.1 +22.4 57 +42 +42 опасность
перегрева
1006.3 1005.8
18 23.05 С 4 10 км ясно +31.7 +20.2 51 +38 +38 очень
душно
1007.5 1007.0 +40.7
21 23.05 В 4 10 км ясно +30.9 +19.8 52 +37 +37 очень
душно
1006.9 1006.4
00 24.05 В 3 10 км ясно +30.6 +17.2 45 +35 +35 очень
душно
1005.6 1005.1
06 24.05 ЮЗ 3 10 км ясно +39.0 +5.0 12 +36 +50 очень
жарко
1006.7 1006.1 +29.8
09 24.05 СЗ 7 10 км ясно +38.8 +10.7 19 +38 +45 очень
жарко
1005.5 1004.9
15 24.05 СЗ 4 10 км ясно +32.9 +17.8 41 +37 +37 очень
душно
1004.7 1004.2
21 24.05 В 3 10 км ясно +31.7 +18.2 45 +36 +36 очень
душно
1004.3 1003.8
00 25.05 ЮВ 6 10 км ясно +30.7 +16.6 43 +34 +34 очень
душно
1004.3 1003.8
03 25.05 Ю 4 8000 м ясно +32.2 +12.3 30 +33 +34 жарко 1005.4 1004.9
06 25.05 ЮЗ 3 10 км ясно +35.9 +13.8 27 +37 +50 душно 1006.7 1006.2 +30.2
09 25.05 СЗ 6 10 км ясно +38.2 +13.9 24 +39 +48 очень
душно
1005.6 1005.0
12 25.05 СЗ 7 10 км 6/0
[Ac trans]
+37.3 +12.5 23 +37 +39 очень
жарко
1004.4 1003.9
15 25.05 СВ 4 10 км 8/0
[Ac trans]
+36.2 +11.6 23 +36 +36 очень
жарко
1004.9 1004.4
18 25.05 нст 1 10 км 8/0
[Ac trans]
+35.7 +10.4 22 +35 +35 очень
жарко
1006.2 1005.6 +39.4
21 25.05 СВ 2 10 км 8/0
[Ac trans]
+35.4 +10.2 22 +34 +34 очень
жарко
1005.3 1004.7
03 26.05 Ю 3 8000 м пыль 9/0
[Ac trans]
+33.0 +18.3 42 +38 +38 очень
душно
1006.8 1006.2
06 26.05 Ю 6 10 км 9/0
[Ac trans]
+34.8 +19.5 41 +40 +44 очень
душно
1007.9 1007.3 +32.7
09 26.05 ЮЗ 3 10 км 8/0
[Ac trans]
+38.2 +17.0 29 +41 +51 опасность
перегрева
1006.7 1006.1
12 26.05 СЗ 7 10 км 8/0
[Ac trans]
+35.1 +19.8 41 +41 +42 опасность
перегрева
1005.3 1004.8
15 26.05 СЗ 5 10 км 10/0
[Ac trans]
+32.8 +21.6 52 +41 +41 опасность
перегрева
1005.4 1004.9
18 26.05 С 2 10 км ясно +33.4 +20.5 47 +40 +40 очень
душно
1005.9 1005.4 +38.6
21 26.05 З 2 10 км 8/0
[Ci fib]
+32.8 +20.3 48 +39 +39 очень
душно
1005.5 1005.0
03 27.05 Ю 5 10 км 4/0
[Ci fib]
+32.3 +18.4 44 +37 +38 очень
душно
1006.0 1005.5

 

Местоположение метеостанции Dubai (ОАЭ): широта 25.25 долгота 55.33 высота над уровнем моря 5 м.

В архиве по умолчанию представлена погода в Dubai за последнюю неделю. Архивные данные за месяц целиком и за предыдущие месяцы, начиная с января 2011 года, Вы можете получить, выбрав интересующий диапазон дат из раскрывающегося списка и нажав кнопку "Ввод!".


*Определитесь, кто Вы:
робот инопланетянин человек

Внимание! Время в таблицах - всемирное. Для получения местного времени необходимо прибавить поправку, которая в Dubai равна 4 ч.

Смотрите также архив погоды в соседних городах и на ближайших метеорологических станциях:

Погода в Sharjah (ОАЭ) (21 км)
Погода в Dubai Al Maktoum Int Airport (ОАЭ) (43 км)
Погода в Ras Al Khaimah Int Airport (ОАЭ) (73 км)
Погода в Abu Musa Island (Иран) (82 км)
Погода в Diba (Оман) (101 км)
Погода в Fujairah (ОАЭ) (102 км)
Погода в Sirri Island (Иран) (107 км)
Погода в Al Ain Int Airport (ОАЭ) (112 км)
Погода в Abu Dhabi (ОАЭ) (114 км)
Погода в Buraimi (Оман) (122 км)

Пояснения к столбцам:

Ветер - указаны скорость ветра в м/с - средняя за 10 мин, порывы в срок и между сроками (в фигурных скобках) и направление, откуда дует ветер: С - северный, СВ - северо-восточный, В - восточный, ЮВ - юго-восточный, Ю - южный, ЮЗ - юго-западный, З - западный, СЗ - северо-западный.
Видимость - горизонтальная дальность видимости в метрах или километрах. При видимости от 1 до 10 км при отсутствии осадков обычно наблюдается дымка, при ухудшении видимости до 1 км и менее - туман. В сухую погоду видимость может ухудшаться дымом, пылью или мглою.
Явления - указаны атмосферные явления, наблюдавшиеся в срок или в последний час перед сроком; фигурными скобками обозначены явления, наблюдавшиеся между сроками (за 1-3 часа до срока); квадратными скобками обозначены град или гололедные отложения с указанием их диаметра в мм.
Облачность - указаны через наклонную черту общая и нижняя облачность в баллах и высота нижней границы облаков в метрах; квадратными скобками обозначены формы облаков: Ci - перистые, Cs - перисто-слоистые, Cc - перисто-кучевые, Ac - высококучевые, As - высокослоистые, Sc - слоисто-кучевые, Ns - слоисто-дождевые, Cu - кучевые, Cb - кучево-дождевые. Подробнее классификацию облаков см. в Атласе облаков (PDF).
T - Температура воздуха - температура, измеренная на высоте 2 м над землей.
Td - Температура точки росы - температура, при понижении до которой содержащийся в воздухе водяной пар достигнет насыщения.
f - Относительная влажность воздуха - влажноcть воздуха, измеренная на высоте 2 м над землей.
Te - Эффективная температура - температура, которую ощущает одетый по сезону человек в тени. Характеристика душности погоды. При расчете учитывается влияние влажности воздуха и скорости ветра на теплоощущения человека.
Tes - Эффективная температура на солнце - температура, которую ощущает человек, с поправкой на солнечный нагрев. Характеристика знойности погоды. Зависит от высоты солнца над горизонтом, облачности и скорости ветра. Ночью, в пасмурную погоду, а также при ветре 12 м/с и более поправка равна нулю.
P - Атмосферное давление - приведенное к уровню моря атмосферное давление.
Po - Атмосферное давление - измеренное на уровне метеостанции атмосферное давление.
Tmin - Минимальная температура - минимум температуры воздуха на высоте 2 м над землей.
Tmax - Максимальная температура - максимум температуры воздуха на высоте 2 м над землей.
R - Количество осадков - Количество выпавших осадков за период времени, мм. При наведении курсора мыши на число - период времени, за который выпало указанное количество осадков.
R24 - Количество осадков - Количество выпавших осадков за 24 часа, мм.
S - Снежный покров - Высота снежного покрова, см. При наведении курсора мыши на число - состояние снежного покрова и степень покрытия местности в баллах.